| time (UTC) | temp C | wind direction | speed KPH | gust KPH | rain 1hr cm | rain 24hr cm | rain mn cm | humidity % | barometer mb |
| 20260507070031 | 8 | 31 | 3.2 | 12.9 | 0.00 | 0.56 | 0.00 | 81 | 1010.5 |
| 20260507065027 | 8 | 0.0 | 3.2 | 0.00 | 0.61 | 0.00 | 80 | 1010.4 | |
| 20260507064043 | 8 | 0.0 | 0.0 | 0.00 | 0.61 | 0.00 | 81 | 1010.4 | |
| 20260507063040 | 8 | 45 | 3.2 | 17.7 | 0.00 | 0.61 | 0.00 | 82 | 1010.2 |
| 20260507062016 | 8 | 0.0 | 0.0 | 0.00 | 0.61 | 0.00 | 82 | 1010.1 | |
| 20260507061112 | 8 | 0.0 | 0.0 | 0.00 | 0.64 | 0.00 | 82 | 1010.0 | |
| 20260507060148 | 8 | 0.0 | 0.0 | 0.00 | 0.64 | 0.00 | 82 | 1010.0 | |
| 20260507055104 | 8 | 12 | 3.2 | 12.9 | 0.00 | 0.64 | 0.00 | 83 | 1009.9 |
| 20260507054100 | 8 | 0 | 0.0 | 3.2 | 0.00 | 0.64 | 0.00 | 84 | 1009.7 |
| 20260507053116 | 7 | 0 | 1.6 | 6.4 | 0.00 | 0.66 | 0.00 | 84 | 1009.6 |
| 20260507052052 | 7 | 0.0 | 0.0 | 0.00 | 0.66 | 0.00 | 84 | 1009.6 | |
| 20260507051108 | 7 | 0.0 | 0.0 | 0.00 | 0.66 | 0.00 | 84 | 1009.5 | |
| 20260507050044 | 7 | 0.0 | 0.0 | 0.00 | 0.66 | 0.00 | 84 | 1009.5 | |
| 20260507045040 | 7 | 0.0 | 0.0 | 0.00 | 0.69 | 0.00 | 84 | 1009.2 | |
| 20260507044035 | 7 | 0.0 | 0.0 | 0.00 | 0.71 | 0.00 | 84 | 1009.2 | |
| 20260507043032 | 7 | 0.0 | 0.0 | 0.00 | 0.71 | 0.00 | 83 | 1009.2 | |
| 20260507042028 | 7 | 356 | 6.4 | 11.3 | 0.00 | 0.71 | 0.00 | 84 | 1009.2 |
| 20260507041024 | 7 | 0.0 | 3.2 | 0.00 | 0.71 | 0.00 | 84 | 1009.0 | |
| 20260507040041 | 7 | 0.0 | 1.6 | 0.00 | 0.76 | 0.00 | 85 | 1008.7 | |
| 20260507035017 | 7 | 23 | 1.6 | 4.8 | 0.00 | 0.79 | 0.00 | 85 | 1008.7 |
| 20260507034113 | 7 | 45 | 0.0 | 4.8 | 0.00 | 0.79 | 0.00 | 86 | 1008.6 |
| 20260507033129 | 7 | 315 | 1.6 | 6.4 | 0.00 | 0.81 | 0.00 | 86 | 1008.6 |
| 20260507032126 | 7 | 120 | 3.2 | 8.0 | 0.00 | 0.84 | 0.00 | 86 | 1008.5 |
| 20260507031102 | 7 | 0.0 | 0.0 | 0.00 | 0.89 | 0.00 | 86 | 1008.5 | |
| 20260507030058 | 7 | 0.0 | 0.0 | 0.00 | 0.97 | 0.00 | 86 | 1008.5 | |
| 20260507025054 | 7 | 0.0 | 4.8 | 0.00 | 1.02 | 0.00 | 86 | 1008.4 | |
| 20260507024111 | 7 | 0 | 1.6 | 11.3 | 0.00 | 1.04 | 0.00 | 86 | 1008.4 |
| 20260507023046 | 7 | 0.0 | 1.6 | 0.00 | 1.09 | 0.00 | 86 | 1008.4 | |
| 20260507022042 | 7 | 0 | 3.2 | 11.3 | 0.00 | 1.12 | 0.00 | 87 | 1008.3 |
| 20260507021038 | 7 | 90 | 0.0 | 3.2 | 0.00 | 1.17 | 0.00 | 87 | 1008.3 |
| 20260507020034 | 7 | 289 | 1.6 | 6.4 | 0.00 | 1.19 | 0.00 | 88 | 1008.3 |
| 20260507015130 | 7 | 90 | 0.0 | 6.4 | 0.00 | 1.22 | 0.00 | 88 | 1008.4 |
| 20260507014026 | 7 | 0.0 | 1.6 | 0.00 | 1.27 | 0.00 | 88 | 1008.3 | |
| 20260507013042 | 7 | 0.0 | 0.0 | 0.00 | 1.30 | 0.00 | 88 | 1008.1 | |
| 20260507012017 | 7 | 0.0 | 0.0 | 0.00 | 1.32 | 0.00 | 88 | 1008.2 | |
| 20260507011112 | 7 | 0.0 | 1.6 | 0.00 | 1.32 | 0.00 | 88 | 1008.1 | |
| 20260507010129 | 7 | 0.0 | 0.0 | 0.00 | 1.35 | 0.00 | 88 | 1007.9 | |
| 20260507005105 | 7 | 0.0 | 0.0 | 0.00 | 1.35 | 0.00 | 88 | 1007.8 | |
| 20260507004102 | 7 | 0.0 | 0.0 | 0.00 | 1.35 | 0.00 | 88 | 1007.7 | |
| 20260507003118 | 7 | 45 | 1.6 | 9.7 | 0.00 | 1.37 | 0.00 | 88 | 1007.6 |
| 20260507002053 | 7 | 0.0 | 0.0 | 0.00 | 1.37 | 0.00 | 88 | 1007.6 | |
| 20260507001050 | 7 | 0.0 | 0.0 | 0.00 | 1.37 | 0.00 | 88 | 1007.6 | |
| 20260507000046 | 7 | 0.0 | 0.0 | 0.00 | 1.37 | 0.00 | 88 | 1007.8 | |
| 20260506235043 | 7 | 0.0 | 0.0 | 0.00 | 1.37 | 0.00 | 88 | 1007.7 | |
| 20260506234038 | 7 | 0.0 | 0.0 | 0.00 | 1.37 | 0.00 | 88 | 1007.8 | |
| 20260506233035 | 7 | 0.0 | 0.0 | 0.00 | 1.37 | 0.00 | 88 | 1007.8 | |
| 20260506232051 | 8 | 315 | 3.2 | 12.9 | 0.00 | 1.37 | 0.00 | 89 | 1007.8 |
| 20260506231027 | 8 | 0.0 | 1.6 | 0.00 | 1.37 | 0.00 | 90 | 1007.5 | |
| 20260506230022 | 8 | 135 | 0.0 | 6.4 | 0.00 | 1.37 | 0.00 | 90 | 1007.4 |
| 20260506225038 | 8 | 0.0 | 0.0 | 0.00 | 1.37 | 0.00 | 91 | 1007.3 | |
| 20260506224135 | 8 | 0.0 | 0.0 | 0.00 | 1.37 | 0.00 | 91 | 1007.2 | |
| 20260506223111 | 9 | 0.0 | 0.0 | 0.00 | 1.37 | 0.00 | 91 | 1007.2 | |
| 20260506222107 | 9 | 0.0 | 0.0 | 0.00 | 1.37 | 0.00 | 92 | 1007.1 | |
| 20260506221102 | 9 | 0.0 | 0.0 | 0.00 | 1.37 | 0.00 | 92 | 1007.1 | |
| 20260506220119 | 10 | 0.0 | 0.0 | 0.00 | 1.37 | 0.00 | 93 | 1007.1 | |
| 20260506215054 | 10 | 0 | 1.6 | 6.4 | 0.00 | 1.37 | 1.37 | 93 | 1007.0 |
| 20260506214050 | 10 | 0.0 | 0.0 | 0.00 | 1.37 | 1.37 | 94 | 1006.8 | |
| 20260506213106 | 10 | 0.0 | 0.0 | 0.00 | 1.37 | 1.37 | 94 | 1006.8 | |
| 20260506212041 | 10 | 0.0 | 0.0 | 0.00 | 1.37 | 1.37 | 94 | 1006.8 | |
| 20260506211058 | 10 | 0.0 | 0.0 | 0.00 | 1.37 | 1.37 | 94 | 1006.7 | |
| 20260506210033 | 10 | 0.0 | 0.0 | 0.00 | 1.37 | 1.37 | 94 | 1006.6 | |
| 20260506205029 | 10 | 0.0 | 0.0 | 0.00 | 1.37 | 1.37 | 94 | 1006.6 | |
| 20260506204025 | 10 | 0.0 | 0.0 | 0.00 | 1.37 | 1.37 | 94 | 1006.6 | |
| 20260506203021 | 10 | 0.0 | 0.0 | 0.00 | 1.37 | 1.37 | 93 | 1006.6 | |
| 20260506202018 | 10 | 0.0 | 0.0 | 0.00 | 1.37 | 1.37 | 93 | 1006.7 | |
| 20260506201114 | 10 | 0.0 | 0.0 | 0.00 | 1.37 | 1.37 | 93 | 1006.6 | |
| 20260506200110 | 10 | 0.0 | 0.0 | 0.00 | 1.37 | 1.37 | 93 | 1006.4 | |
| 20260506195106 | 10 | 0.0 | 0.0 | 0.00 | 1.37 | 1.37 | 93 | 1006.3 | |
| 20260506194102 | 10 | 0.0 | 0.0 | 0.00 | 1.37 | 1.37 | 92 | 1006.4 | |
| 20260506193058 | 10 | 0.0 | 0.0 | 0.00 | 1.37 | 1.37 | 92 | 1006.2 | |
| 20260506192054 | 11 | 0.0 | 0.0 | 0.00 | 1.37 | 1.37 | 92 | 1006.2 | |
| 20260506191050 | 11 | 0.0 | 0.0 | 0.00 | 1.37 | 1.37 | 92 | 1006.0 | |
| 20260506190046 | 11 | 0.0 | 0.0 | 0.00 | 1.37 | 1.37 | 91 | 1005.8 | |
| 20260506185042 | 11 | 0.0 | 0.0 | 0.00 | 1.37 | 1.37 | 91 | 1005.7 | |
| 20260506184038 | 11 | 0.0 | 0.0 | 0.00 | 1.37 | 1.37 | 90 | 1005.8 | |
| 20260506183035 | 11 | 0.0 | 0.0 | 0.00 | 1.37 | 1.37 | 90 | 1005.6 | |
| 20260506182031 | 11 | 0.0 | 0.0 | 0.00 | 1.37 | 1.37 | 90 | 1005.6 | |
| 20260506181107 | 11 | 0.0 | 0.0 | 0.00 | 1.37 | 1.37 | 90 | 1005.4 | |
| 20260506180023 | 11 | 0.0 | 0.0 | 0.00 | 1.37 | 1.37 | 90 | 1005.4 | |
| 20260506175019 | 12 | 0.0 | 0.0 | 0.00 | 1.37 | 1.37 | 90 | 1005.3 | |
| 20260506174115 | 12 | 0.0 | 0.0 | 0.00 | 1.37 | 1.37 | 90 | 1005.3 | |
| 20260506173111 | 12 | 0.0 | 0.0 | 0.00 | 1.37 | 1.37 | 89 | 1005.5 | |
| 20260506172107 | 12 | 0.0 | 0.0 | 0.00 | 1.37 | 1.37 | 86 | 1005.4 | |
| 20260506171103 | 12 | 0.0 | 0.0 | 0.00 | 1.37 | 1.37 | 84 | 1005.3 | |
| 20260506170100 | 12 | 0.0 | 0.0 | 0.00 | 1.37 | 1.37 | 84 | 1005.1 | |
| 20260506165116 | 12 | 0.0 | 0.0 | 0.00 | 1.37 | 1.37 | 84 | 1005.1 | |
| 20260506164052 | 13 | 0.0 | 0.0 | 0.00 | 1.37 | 1.37 | 83 | 1005.1 | |
| 20260506163128 | 13 | 0.0 | 0.0 | 0.00 | 1.37 | 1.37 | 83 | 1005.2 | |
| 20260506162044 | 13 | 0.0 | 0.0 | 0.00 | 1.37 | 1.37 | 83 | 1005.0 | |
| 20260506161040 | 13 | 0.0 | 0.0 | 0.00 | 1.37 | 1.37 | 84 | 1005.2 | |
| 20260506160036 | 13 | 0.0 | 0.0 | 0.00 | 1.37 | 1.37 | 84 | 1005.2 | |
| 20260506155032 | 13 | 0.0 | 3.2 | 0.00 | 1.37 | 1.37 | 86 | 1005.2 | |
| 20260506154028 | 13 | 0.0 | 0.0 | 0.00 | 1.37 | 1.37 | 85 | 1005.2 | |
| 20260506153024 | 13 | 0.0 | 0.0 | 0.00 | 1.37 | 1.37 | 85 | 1005.1 | |
| 20260506152019 | 13 | 0.0 | 0.0 | 0.00 | 1.37 | 1.37 | 85 | 1005.1 | |
| 20260506151016 | 13 | 0.0 | 0.0 | 0.00 | 1.37 | 1.37 | 84 | 1005.1 | |
| 20260506150112 | 13 | 0.0 | 0.0 | 0.00 | 1.37 | 1.37 | 83 | 1005.1 | |
| 20260506145108 | 13 | 0.0 | 0.0 | 0.00 | 1.37 | 1.37 | 83 | 1004.9 | |
| 20260506144104 | 14 | 0.0 | 0.0 | 0.00 | 1.37 | 1.37 | 83 | 1004.9 | |
| 20260506143100 | 14 | 90 | 0.0 | 6.4 | 0.00 | 1.37 | 1.37 | 84 | 1005.0 |
| 20260506142057 | 14 | 0.0 | 0.0 | 0.00 | 1.37 | 1.37 | 86 | 1005.0 | |
| 20260506141053 | 15 | 0.0 | 0.0 | 0.00 | 1.37 | 1.37 | 91 | 1005.0 | |
| 20260506140109 | 14 | 0.0 | 0.0 | 0.00 | 1.37 | 1.37 | 93 | 1005.0 | |
| 20260506135045 | 13 | 0.0 | 0.0 | 0.00 | 1.37 | 1.37 | 93 | 1004.9 | |
| 20260506134041 | 13 | 0.0 | 0.0 | 0.00 | 1.37 | 1.37 | 94 | 1005.0 | |
| 20260506133037 | 13 | 0.0 | 0.0 | 0.00 | 1.37 | 1.37 | 97 | 1004.9 | |
| 20260506132033 | 13 | 0.0 | 0.0 | 0.00 | 1.37 | 1.37 | 98 | 1004.9 | |
| 20260506131028 | 13 | 315 | 0.0 | 3.2 | 0.00 | 1.37 | 1.37 | 99 | 1005.0 |
| 20260506130024 | 13 | 0.0 | 0.0 | 0.00 | 1.37 | 1.37 | 99 | 1005.0 | |
| 20260506125101 | 13 | 0.0 | 0.0 | 0.00 | 1.37 | 1.37 | 99 | 1004.8 | |
| 20260506124016 | 12 | 0.0 | 0.0 | 0.00 | 1.37 | 1.37 | 99 | 1004.8 | |
| 20260506123113 | 12 | 0.0 | 0.0 | 0.00 | 1.37 | 1.37 | 99 | 1004.9 | |
| 20260506122129 | 12 | 0.0 | 0.0 | 0.00 | 1.37 | 1.37 | 99 | 1004.9 | |
| 20260506121105 | 12 | 0.0 | 0.0 | 0.00 | 1.37 | 1.37 | 99 | 1004.8 | |
| 20260506115058 | 12 | 0.0 | 0.0 | 0.00 | 1.37 | 1.37 | 99 | 1004.6 | |
| 20260506114054 | 12 | 0.0 | 0.0 | 0.00 | 1.37 | 1.37 | 99 | 1004.5 | |
| 20260506113110 | 12 | 0.0 | 0.0 | 0.00 | 1.37 | 1.37 | 99 | 1004.4 | |
| 20260506112046 | 12 | 0.0 | 0.0 | 0.00 | 1.37 | 1.37 | 99 | 1004.3 | |
| 20260506111041 | 12 | 0.0 | 0.0 | 0.00 | 1.37 | 1.37 | 99 | 1004.2 | |
| 20260506110058 | 12 | 0.0 | 3.2 | 0.00 | 1.37 | 1.37 | 99 | 1004.2 | |
| 20260506105033 | 12 | 0.0 | 0.0 | 0.00 | 1.37 | 1.37 | 99 | 1004.1 | |
| 20260506104029 | 12 | 0.0 | 0.0 | 0.03 | 1.37 | 1.37 | 99 | 1004.1 | |
| 20260506103025 | 12 | 0.0 | 0.0 | 0.03 | 1.37 | 1.37 | 99 | 1003.9 | |
| 20260506102021 | 12 | 0.0 | 0.0 | 0.05 | 1.37 | 1.37 | 99 | 1003.9 | |
| 20260506101016 | 12 | 0.0 | 0.0 | 0.13 | 1.37 | 1.37 | 99 | 1003.8 | |
| 20260506100133 | 11 | 0.0 | 0.0 | 0.15 | 1.37 | 1.37 | 99 | 1003.8 | |
| 20260506095108 | 11 | 0.0 | 0.0 | 0.18 | 1.37 | 1.37 | 99 | 1003.8 | |
| 20260506094104 | 11 | 0.0 | 0.0 | 0.18 | 1.35 | 1.35 | 99 | 1003.6 | |
| 20260506093101 | 11 | 0.0 | 0.0 | 0.20 | 1.35 | 1.35 | 99 | 1003.7 | |
| 20260506092056 | 11 | 0.0 | 0.0 | 0.20 | 1.32 | 1.32 | 99 | 1003.5 | |
| 20260506091052 | 11 | 0.0 | 3.2 | 0.15 | 1.27 | 1.27 | 99 | 1003.4 | |
| 20260506090048 | 11 | 0.0 | 0.0 | 0.15 | 1.22 | 1.22 | 99 | 1003.4 | |
| 20260506085044 | 11 | 0.0 | 0.0 | 0.18 | 1.19 | 1.19 | 99 | 1003.4 | |
| 20260506084040 | 11 | 0.0 | 0.0 | 0.18 | 1.17 | 1.17 | 99 | 1003.3 | |
| 20260506083036 | 11 | 0.0 | 4.8 | 0.18 | 1.14 | 1.14 | 99 | 1003.3 | |
| 20260506082032 | 11 | 0.0 | 0.0 | 0.20 | 1.12 | 1.12 | 99 | 1003.3 | |
| 20260506081028 | 11 | 0.0 | 0.0 | 0.28 | 1.12 | 1.12 | 99 | 1003.2 | |
| 20260506073112 | 11 | 0.0 | 0.0 | 0.18 | 0.97 | 0.97 | 99 | 1003.1 | |
| 20260506072108 | 11 | 0.0 | 0.0 | 0.13 | 0.89 | 0.89 | 99 | 1003.0 | |
| 20260506071104 | 11 | 0.0 | 0.0 | 0.10 | 0.84 | 0.84 | 99 | 1002.9 |